Regional Weather Roundup
Issued by NWS

Home | Current Version | Previous Version | Text Only | Print | Product List | Glossary On
Versions: 1 2 3 4 5 6 7 8 9 10 11 12 13 14 15 16 17 18 19 20 21 22 23 24 25 26 27 28 29 30 31 32 33 34 35 36 37 38 39 40 41 42 43 44 45 46
000
ASUS45 KBOU 212310
RWRCO

WEATHER ROUNDUP FOR COLORADO
NATIONAL WEATHER SERVICE PUEBLO CO
400 PM MST WED FEB 21 2018

NOTE: "FAIR" INDICATES FEW OR NO CLOUDS BELOW 12000 FEET WITH NO
SIGNIFICANT WEATHER AND/OR OBSTRUCTIONS TO VISIBILITY.

COZ001>005-013-030-031-220000-
...NORTHWEST COLORADO...

CITY           SKY/WX    TMP DP  RH WIND       PRES   REMARKS
CRAIG          PTSUNNY   24   5  44 CALM      30.05S
HAYDEN         FAIR      17   8  67 S7        30.05S WCI   8
MEEKER         PTSUNNY   30   7  37 NW3       30.00F
RABBIT EARS PA NOT AVBL
STEAMBOAT SPGS CLOUDY    24   1  37 NW5       30.02S WCI  19
WALDEN         FAIR      21   0  39 SW5       29.98S WCI  15
$$

COZ006>008-011-220000-
...WEST CENTRAL VALLEYS...

CITY           SKY/WX    TMP DP  RH WIND       PRES   REMARKS
GRAND JUNCTION FAIR      35   7  31 CALM      30.03F
MONTROSE       FAIR      32  14  47 W6        30.03S WCI  26
EAGLE          FAIR      31   6  35 CALM      30.01S
RIFLE          PTSUNNY   31   9  39 E6        30.03F WCI  25
DELTA          NOT AVBL
NUCLA          CLOUDY    36  12  38 CALM      30.03S
$$

COZ017>023-064>068-220000-
...SOUTHWEST COLORADO...

CITY           SKY/WX    TMP DP  RH WIND       PRES   REMARKS
DURANGO        CLOUDY    33  20  58 E8        30.00F WCI  26
CORTEZ         CLOUDY    39  16  39 SE12      29.99F
PAGOSA SPRINGS CLOUDY    30  17  59 CALM      30.02F
TELLURIDE      CLOUDY    27   6  40 S14       29.95S WCI  15
WOLF CREEK PAS CLOUDY    10  10 100 S15G23    29.99S WCI  -6
$$

COZ009-010-012-014-032>034-037-058>063-220000-
...CENTRAL COLORADO...

CITY           SKY/WX    TMP DP  RH WIND       PRES   REMARKS
ASPEN          CLOUDY    26   6  42 N6        29.94S WCI  19
BUENA VISTA    FAIR      33   4  28 SE18G29   29.93S WCI  22
COPPER MTN     FAIR      19  -6  32 S9G18     29.89S WCI   9
BERTHOUD PASS  FAIR       5  -6  61 NW7       29.88R WCI  -7
COTTONWOOD PAS FAIR      32   9  37 S8G20     29.92S WCI  25
GUNNISON       FAIR      32   8  36 CALM      29.95S
KREMMLING      FAIR      27   3  36 CALM      30.00F
LEADVILLE      FAIR      20  -1  40 S8        29.89S WCI  10
MONARCH PASS   FAIR      14   9  79 SW23G30   30.01R WCI  -5
SALIDA         FAIR      36   6  28 S13G26    30.03S
SUNLIGHT       CLOUDY    10   5  79 W6        29.95S WCI   1
WILKERSON PASS FAIR      19   1  45 S5        29.94S WCI  13
$$

COZ069>075-220000-
...SAN LUIS VALLEY/SANGRE DE CRISTO MOUNTAINS...

CITY           SKY/WX    TMP DP  RH WIND       PRES   REMARKS
ALAMOSA        FAIR      38  12  34 SW18G24   29.97S
DEL NORTE      FAIR      32   6  33 W5        29.98S WCI  27
LA VETA PASS   FAIR      28  10  47 S18G32    30.08S WCI  16
SAGUACHE       NOT AVBL
$$

COZ035-036-038>040-220000-
...NORTHERN COLORADO FRONT RANGE...

CITY           SKY/WX    TMP DP  RH WIND       PRES   REMARKS
DENVER INTL AP FAIR      19  12  74 N12       30.08S WCI   7
DMNS CITY PARK NOT AVBL
AURORA         MOSUNNY   19  14  79 N8        30.08R WCI   9
FRONT RANGE AP MOSUNNY   23  18  80 N9        30.08S WCI  13
ERIE MUNI ARPT FAIR      19  10  68 N8        30.18S WCI   9
BOULDER MUN AP FAIR      21  12  68 N5        30.11F WCI  15
CENTENNIAL     FAIR      22  14  71 N14       30.06R WCI   9
BROOMFIELD     MOSUNNY   21  12  68 NW12      30.08F WCI   9
LOVELAND       FAIR      20  12  71 N9        30.14F WCI   9
LONGMONT       FAIR      24  11  59 N6        30.15F WCI  16
$$

COZ041-046-047-076>085-087-088-220000-
...PIKES PEAK/PALMER DIVIDE AND SOUTHERN FOOTHILLS...

CITY           SKY/WX    TMP DP  RH WIND       PRES   REMARKS
COLO. SPRINGS  FAIR      25  12  58 S8        30.08S WCI  16
A. F. ACADEMY  MOSUNNY   24  12  59 S14       30.04S WCI  12
SCHRIEVER AFB  NOT AVBL
CHEYENNE MTN   NOT AVBL
ELLICOTT         N/A    N/A N/A N/A S9        30.07F
FALCON         FAIR      24   8  51 S12       30.06S WCI  13
FORT CARSON    FAIR      27  12  53 S10       30.07F WCI  17
LIMON          FAIR      27   9  46 S16G23    30.11S WCI  15
MONUMENT HILL  FAIR      25  12  58 SE7       30.03R WCI  17
CANON CITY     SUNNY     34  16  47 E8        30.08F WCI  27
WALSENBURG     FAIR      37  16  41 E6        30.05S
TRINIDAD       FAIR      38  12  34 NE15      30.04F
$$

COZ042>045-048>051-090-091-220000-
...NORTHEAST COLORADO...

CITY           SKY/WX    TMP DP  RH WIND       PRES   REMARKS
GREELEY ARPT   FAIR      19  12  74 NW9       30.15F WCI   8
AKRON          FAIR      25  12  58 SE20      30.16S WCI  11
BURLINGTON     CLOUDY    27  10  49 SE16G22   30.22S WCI  15
WRAY           FAIR      32   7  34 SE13G18   30.26S WCI  22
YUMA           NOT AVBL
STERLING       FAIR      32  12  43 SE12      30.18S WCI  23
HOLYOKE        FAIR      32  14  47 SE16G22   30.25F WCI  21
FORT MORGAN    FAIR      33  11  40 SE12G17   30.14S WCI  24
$$

COZ086-089-092>099-220000-
...SOUTHEAST COLORADO...

CITY           SKY/WX    TMP DP  RH WIND       PRES   REMARKS
PUEBLO         FAIR      31  11  43 E8        30.13F WCI  23
LA JUNTA       FAIR      30  10  43 E17       30.17S WCI  18
LAMAR          CLOUDY    25  12  58 E10       30.23S WCI  15
SPRINGFIELD      N/A     22  15  75 SE13      30.21R WCI  10
$$





USA.gov is the U.S. government's official web portal to all federal, state and local government web resources and services.